Hourly Data Report for October 04, 2016

All times are specified in Local Standard Time (LST). Add 1 hour to adjust for Daylight Saving Time where and when it is observed.

GRISE FIORD CLIMATE
NUNAVUT

76°25'22.040" N
82°54'08.020" W
44.50 m
2402351
71971
NGC

Download Data

Hourly Data (October 2016)
Hourly Data Report for October 4, 2016
Temp Definition
°C
Dew Point Temp Definition
°C
Rel Hum Definition
%
Wind Dir Definition
10's deg

Wind Spd Definition
km/h
Visibility Definition
km
Stn Press Definition
kPa
Hmdx Definition


Wind Chill Definition


Weather Definition


TIME
00:00 -8.6 -12.8 71 6 3   99.81   -10 LegendNANA
01:00 -9.2 -13.7 70 7 7   99.82   -13 LegendNANA
02:00 -7.6 -11.4 74 6 3   99.85   -9 LegendNANA
03:00 -7.5 -11.0 76 6 5   99.88   -10 LegendNANA
04:00 -8.8 -12.3 76 11 3   99.91   -10 LegendNANA
05:00 -7.3 -11.3 73 5 9   99.92   -12 LegendNANA
06:00 -7.5 -11.5 73 4 13   99.94   -13 LegendNANA
07:00 -7.5 -11.5 73 4 17   99.97   -14 LegendNANA
08:00 -6.5 -10.1 75 5 8   100.01   -10 LegendNANA
09:00 -6.0 -9.0 79 3 6   100.03   -9 LegendNANA
10:00 -6.3 -9.1 81 33 5   100.07   -9 LegendNANA
11:00 -6.3 -8.8 82 33 10   100.09   -11 LegendNANA
12:00 -6.0 -8.8 81 33 6   100.09   -9 LegendNANA
13:00 -6.3 -8.6 84 33 6   100.13   -9 LegendNANA
14:00 -6.5 -8.9 83 33 10   100.15   -11 LegendNANA
15:00 -6.3 -9.1 80 35 9   100.18   -11 LegendNANA
16:00 -6.2 -8.5 83 30 6   100.19   -9 LegendNANA
17:00 -6.4 -8.9 83 30 6   100.22   -9 LegendNANA
18:00 -6.9 -9.2 84 26 9   100.25   -11 LegendNANA
19:00 -7.1 -9.3 84 29 4   100.29   -9 LegendNANA
20:00 -7.1 -9.3 85 3 3   100.33   -9 LegendNANA
21:00 -7.2 -9.3 85 28 7   100.34   -11 LegendNANA
22:00 -7.6 -9.4 87 27 14   100.39   -14 LegendNANA
23:00 -7.2 -9.4 85 28 4   100.38   -9 LegendNANA

Notes on Data Quality.

Legend

  • E = Estimated
  • M = Missing
  • NA = Not Available
  • ‡ = Partner data that is not subject to review by the National Climate Archives
Date modified: